{"data":{"norad_id":65267,"epoch":"2026-05-25T02:26:42.048384Z","epoch_age_seconds":73390,"freshness":"FRESH","line1":"1 65267U 25182A   26145.10187556  .00082476  44462-5  20015-3 0  9998","line2":"2 65267  96.5879  76.7625 0003491 189.9402 170.1808 15.96381169 44018","mean_motion":15.96381169,"eccentricity":0.0003491,"inclination_deg":96.5879,"raan_deg":76.7625,"arg_perigee_deg":189.9402,"mean_anomaly_deg":170.1808,"bstar":0.00020015,"rev_number":4401,"period_min":90.204020691502,"perigee_km":282.14276150861,"apogee_km":286.7945927924,"semimajor_km":6662.6056771505,"source":"CELESTRAK","updated_at":"2026-05-25T13:38:05.284825Z"}}